When you browse on this site, cookies collect data to enhance your experience and personalize the content and advertising you see.
Visit our Privacy Policy to learn more. By continuing to use the site, you agree to this use of cookies and data.
  • In France
  • List of Countries
  • For 7 days
  • Water Temperature
  • Weather Map
  • Weather Widgets
  • user-avatar
    Login

    Hourly Weather Townsville

    Today, 24 August, Saturday

    Time Temperature Precipitation Wind Pressure Humidity
    00:00 +16°C° 0 mm 3 mps 758 mmHg 88%
    01:00 +14°C° 0 mm 3 mps 757 mmHg 89%
    02:00 +14°C° 0 mm 3 mps 757 mmHg 89%
    03:00 +14°C° 0 mm 3 mps 757 mmHg 89%
    04:00 +14°C° 0 mm 2 mps 757 mmHg 90%
    05:00 +15°C° 0 mm 2 mps 757 mmHg 89%
    06:00 +15°C° 0 mm 2 mps 758 mmHg 87%
    07:00 +15°C° 0 mm 2 mps 758 mmHg 85%
    08:00 +18°C° 0 mm 2 mps 758 mmHg 74%
    09:00 +21°C° 0 mm 3 mps 758 mmHg 63%
    10:00 +24°C° 0 mm 3 mps 758 mmHg 54%
    11:00 +25°C° 0 mm 3 mps 758 mmHg 55%
    12:00 +25°C° 0 mm 4 mps 757 mmHg 56%
    13:00 +25°C° 0 mm 4 mps 757 mmHg 56%
    14:00 +25°C° 0.1 mm 4 mps 756 mmHg 61%
    15:00 +23°C° 0.1 mm 5 mps 756 mmHg 66%
    16:00 +23°C° 0 mm 5 mps 756 mmHg 67%
    17:00 +22°C° 0 mm 5 mps 756 mmHg 71%
    18:00 +21°C° 0 mm 5 mps 756 mmHg 74%
    19:00 +20°C° 0 mm 4 mps 757 mmHg 78%
    20:00 +20°C° 0 mm 4 mps 757 mmHg 79%
    21:00 +19°C° 0 mm 4 mps 757 mmHg 81%
    22:00 +19°C° 0 mm 4 mps 757 mmHg 82%
    23:00 +18°C° 0 mm 4 mps 757 mmHg 85%

    Tomorrow, 25 August, Sunday

    Time Temperature Precipitation Wind Pressure Humidity
    00:00 +18°C° 0 mm 4 mps 757 mmHg 88%
    01:00 +17°C° 0 mm 4 mps 757 mmHg 90%
    02:00 +17°C° 0 mm 4 mps 756 mmHg 91%
    03:00 +17°C° 0 mm 3 mps 756 mmHg 92%
    04:00 +16°C° 0 mm 3 mps 756 mmHg 93%
    05:00 +16°C° 0 mm 3 mps 756 mmHg 93%
    06:00 +16°C° 0 mm 3 mps 756 mmHg 94%
    07:00 +16°C° 0 mm 3 mps 756 mmHg 94%
    08:00 +19°C° 0 mm 3 mps 757 mmHg 81%
    09:00 +22°C° 0 mm 3 mps 757 mmHg 69%
    10:00 +25°C° 0 mm 3 mps 757 mmHg 57%
    11:00 +26°C° 0 mm 4 mps 756 mmHg 53%
    12:00 +27°C° 0 mm 4 mps 756 mmHg 49%
    13:00 +28°C° 0 mm 4 mps 755 mmHg 46%
    14:00 +27°C° 0 mm 4 mps 755 mmHg 49%
    15:00 +26°C° 0 mm 4 mps 754 mmHg 53%
    16:00 +25°C° 0 mm 4 mps 754 mmHg 57%
    17:00 +22°C° 0 mm 4 mps 754 mmHg 67%
    18:00 +21°C° 0 mm 3 mps 754 mmHg 78%
    19:00 +19°C° 0 mm 2 mps 755 mmHg 88%
    20:00 +19°C° 0 mm 2 mps 755 mmHg 89%
    21:00 +19°C° 0 mm 2 mps 756 mmHg 90%
    22:00 +18°C° 0 mm 3 mps 756 mmHg 91%
    23:00 +18°C° 0 mm 3 mps 756 mmHg 92%

    Day after tomorrow, 26 August, Monday

    Time Temperature Precipitation Wind Pressure Humidity
    00:00 +18°C° 0 mm 3 mps 756 mmHg 92%
    01:00 +18°C° 0 mm 3 mps 755 mmHg 92%
    02:00 +18°C° 0 mm 3 mps 755 mmHg 93%
    03:00 +17°C° 0 mm 3 mps 755 mmHg 93%
    04:00 +17°C° 0 mm 3 mps 755 mmHg 94%
    05:00 +17°C° 0 mm 3 mps 756 mmHg 93%
    06:00 +17°C° 0 mm 2 mps 756 mmHg 93%
    07:00 +17°C° 0 mm 2 mps 756 mmHg 93%
    08:00 +19°C° 0 mm 2 mps 756 mmHg 80%
    09:00 +23°C° 0 mm 2 mps 757 mmHg 67%
    10:00 +26°C° 0 mm 2 mps 757 mmHg 54%
    11:00 +26°C° 0 mm 3 mps 756 mmHg 51%
    12:00 +27°C° 0 mm 3 mps 755 mmHg 49%
    13:00 +27°C° 0 mm 3 mps 755 mmHg 46%
    14:00 +27°C° 0 mm 4 mps 754 mmHg 49%
    15:00 +26°C° 0 mm 4 mps 754 mmHg 52%
    16:00 +25°C° 0 mm 4 mps 754 mmHg 55%
    17:00 +24°C° 0 mm 3 mps 754 mmHg 65%
    18:00 +21°C° 0 mm 3 mps 755 mmHg 74%
    19:00 +19°C° 0 mm 2 mps 755 mmHg 84%
    20:00 +18°C° 0 mm 2 mps 755 mmHg 85%
    21:00 +18°C° 0 mm 2 mps 756 mmHg 86%
    22:00 +18°C° 0 mm 3 mps 756 mmHg 87%
    23:00 +17°C° 0 mm 2 mps 756 mmHg 88%

    27 August, Tuesday

    Time Temperature Precipitation Wind Pressure Humidity
    00:00 +17°C° 0 mm 2 mps 756 mmHg 88%
    01:00 +17°C° 0 mm 2 mps 756 mmHg 88%
    02:00 +16°C° 0 mm 2 mps 756 mmHg 88%
    03:00 +16°C° 0 mm 2 mps 756 mmHg 89%
    04:00 +16°C° 0 mm 2 mps 755 mmHg 89%
    05:00 +16°C° 0 mm 2 mps 756 mmHg 88%
    06:00 +16°C° 0 mm 2 mps 756 mmHg 87%
    07:00 +16°C° 0 mm 2 mps 757 mmHg 86%
    08:00 +19°C° 0 mm 2 mps 757 mmHg 71%
    09:00 +22°C° 0 mm 3 mps 757 mmHg 57%
    10:00 +26°C° 0 mm 3 mps 757 mmHg 43%
    11:00 +26°C° 0 mm 4 mps 757 mmHg 42%
    12:00 +27°C° 0 mm 4 mps 756 mmHg 40%
    13:00 +27°C° 0 mm 5 mps 755 mmHg 39%
    14:00 +27°C° 0 mm 5 mps 755 mmHg 41%
    15:00 +26°C° 0 mm 5 mps 755 mmHg 42%
    16:00 +26°C° 0 mm 5 mps 754 mmHg 44%
    17:00 +23°C° 0 mm 4 mps 755 mmHg 54%
    18:00 +21°C° 0 mm 3 mps 756 mmHg 64%
    19:00 +19°C° 0 mm 3 mps 756 mmHg 74%
    20:00 +18°C° 0 mm 3 mps 756 mmHg 78%
    21:00 +18°C° 0 mm 2 mps 757 mmHg 82%
    22:00 +17°C° 0 mm 2 mps 757 mmHg 86%
    23:00 +17°C° 0 mm 2 mps 757 mmHg 87%

    28 August, Wednesday

    Time Temperature Precipitation Wind Pressure Humidity
    00:00 +17°C° 0 mm 2 mps 757 mmHg 88%
    01:00 +17°C° 0 mm 2 mps 757 mmHg 89%
    02:00 +17°C° 0 mm 2 mps 756 mmHg 89%
    03:00 +16°C° 0 mm 2 mps 756 mmHg 90%
    04:00 +16°C° 0 mm 2 mps 756 mmHg 90%
    05:00 +16°C° 0 mm 2 mps 756 mmHg 90%
    06:00 +16°C° 0 mm 2 mps 757 mmHg 90%
    07:00 +17°C° 0 mm 2 mps 757 mmHg 89%
    08:00 +19°C° 0 mm 2 mps 757 mmHg 77%
    09:00 +23°C° 0 mm 2 mps 757 mmHg 65%
    10:00 +25°C° 0 mm 2 mps 757 mmHg 52%
    11:00 +26°C° 0 mm 3 mps 756 mmHg 50%
    12:00 +27°C° 0 mm 3 mps 756 mmHg 48%
    13:00 +27°C° 0 mm 4 mps 755 mmHg 46%
    14:00 +27°C° 0 mm 4 mps 755 mmHg 49%
    15:00 +26°C° 0 mm 4 mps 754 mmHg 53%
    16:00 +25°C° 0 mm 4 mps 754 mmHg 56%
    17:00 +22°C° 0 mm 4 mps 755 mmHg 67%
    18:00 +21°C° 0 mm 3 mps 755 mmHg 78%
    19:00 +19°C° 0 mm 3 mps 756 mmHg 90%
    20:00 +19°C° 0 mm 3 mps 756 mmHg 90%
    21:00 +19°C° 0 mm 3 mps 756 mmHg 91%
    22:00 +19°C° 0 mm 3 mps 757 mmHg 92%
    23:00 +18°C° 0 mm 3 mps 756 mmHg 92%

    29 August, Thursday

    Time Temperature Precipitation Wind Pressure Humidity
    00:00 +18°C° 0 mm 3 mps 756 mmHg 93%
    01:00 +18°C° 0 mm 3 mps 755 mmHg 93%
    02:00 +18°C° 0 mm 3 mps 755 mmHg 92%
    03:00 +18°C° 0 mm 2 mps 755 mmHg 91%
    04:00 +19°C° 0 mm 2 mps 755 mmHg 91%
    05:00 +19°C° 0.1 mm 2 mps 755 mmHg 90%
    06:00 +19°C° 0.1 mm 3 mps 756 mmHg 89%
    07:00 +19°C° 0.1 mm 3 mps 756 mmHg 88%
    08:00 +21°C° 0 mm 3 mps 756 mmHg 78%
    09:00 +22°C° 0 mm 4 mps 756 mmHg 69%
    10:00 +25°C° 0 mm 5 mps 757 mmHg 60%
    11:00 +26°C° 0 mm 4 mps 756 mmHg 54%
    12:00 +27°C° 0 mm 4 mps 755 mmHg 49%
    13:00 +28°C° 0 mm 4 mps 755 mmHg 44%
    14:00 +27°C° 0 mm 4 mps 754 mmHg 47%
    15:00 +26°C° 0 mm 4 mps 754 mmHg 50%
    16:00 +26°C° 0 mm 4 mps 754 mmHg 52%
    17:00 +23°C° 0 mm 4 mps 754 mmHg 63%
    18:00 +21°C° 0 mm 3 mps 754 mmHg 73%
    19:00 +19°C° 0 mm 2 mps 755 mmHg 83%
    20:00 +18°C° 0 mm 2 mps 755 mmHg 85%
    21:00 +18°C° 0 mm 2 mps 755 mmHg 87%
    22:00 +18°C° 0 mm 2 mps 756 mmHg 89%
    23:00 +17°C° 0 mm 2 mps 755 mmHg 89%
    Show more